This demonstration page uses our WeatherBlox Daily Observations layout. Learn more.

Left ArrowRight Arrow

39.92423, -83.80882

Hourly Observations for January 14, 2020

Temp ( °F °C ) Dew Point ( °F °C ) Humidity (%) Winds ( mph kmh ) Pressure ( in mb ) Visibility ( mi km ) Precip ( " mm )
12:56 am 00:56 Clear 35 1.7 34 1.1 96 96 E 10 17 30.27 1025 10 16.0934 0 0
1:56 am 01:56 Clear 35 1.7 35 1.7 100 100 ESE 13 20 30.22 1023 10 16.0934 0 0
2:56 am 02:56 Mostly Cloudy with Light Rain 36 2.2 35 1.7 97 97 ESE 12 19 30.19 1022 10 16.0934 0.001 0.001
3:56 am 03:56 Mostly Cloudy 36 2.2 35 1.7 97 97 ESE 9 15 30.15 1021 10 16.0934 0.001 0.001
4:56 am 04:56 Clear 34 1.1 34 1.1 100 100 ESE 8 13 30.11 1020 9 14.48406 0 0
5:56 am 05:56 Mostly Cloudy 36 2.2 36 2.2 100 100 SE 8 13 30.1 1019 10 16.0934 0 0
6:56 am 06:56 Mostly Clear 35 1.7 35 1.7 100 100 Calm 30.13 1020 10 16.0934 0 0
7:56 am 07:56 Cloudy with Mist and Fog 34 1.1 34 1.1 100 100 SE 3 6 30.11 1020 5 8.0467 0 0
8:23 am 08:23 Mostly Cloudy 36 2 36 2 100 100 S 6 9 30.15 1021 7 11.26538 0 0
8:31 am 08:31 Cloudy 37 3 37 3 100 100 SSW 6 9 30.13 1020 7 11.26538 0 0
8:45 am 08:45 Cloudy 37 3 37 3 100 100 SW 9 15 30.13 1020 8 12.87472 0 0
8:56 am 08:56 Cloudy with Mist and Fog 39 3.9 39 3.9 100 100 WSW 9 15 30.12 1020 2.5 4.02335 0 0
9:06 am 09:06 Cloudy with Mist and Fog 39 4 39 4 100 100 WSW 10 17 30.13 1020 1 1.60934 0 0
9:09 am 09:09 Cloudy with Mist and Fog 39 4 39 4 100 100 WSW 10 17 30.13 1020 0.75 1.207005 0 0
9:20 am 09:20 Cloudy with Fog 39 4 39 4 100 100 WSW 12 19 30.13 1020 0.5 0.80467 0 0
9:46 am 09:46 Cloudy with Mist and Fog 41 5 41 5 100 100 WSW 12 19 30.14 1021 1 1.60934 0 0
9:54 am 09:54 Cloudy with Mist and Fog 41 5 41 5 100 100 WSW 13 20 30.14 1021 2 3.21868 0 0
9:55 am 09:55 Cloudy with Mist and Fog 41 5 41 5 100 100 WSW 13 20 30.14 1021 2.5 4.02335 0 0
10:03 am 10:03 Cloudy with Mist and Fog 43 6 43 6 100 100 W 13 20 30.14 1021 5 8.0467 0 0
10:10 am 10:10 Cloudy with Mist and Fog 43 6 43 6 100 100 W 14 22 30.15 1021 4 6.43736 0 0
10:56 am 10:56 Cloudy with Mist and Fog 42 5.6 42 5.6 100 100 WSW 13 20 30.17 1022 4 6.43736 0 0
11:56 am 11:56 Cloudy with Mist and Fog 42 5.6 42 5.6 100 100 W 15 24 30.16 1021 6 9.65604 0 0
12:12 pm 12:12 Cloudy 43 6 43 6 100 100 W 13 20 30.17 1022 7 11.26538 0 0
12:56 pm 12:56 Cloudy 43 6.1 42 5.6 97 97 W 16 26 30.16 1021 8 12.87472 0 0
1:56 pm 13:56 Cloudy 43 6.1 42 5.6 97 97 W 16 26 30.15 1021 7 11.26538 0 0
2:56 pm 14:56 Cloudy 43 6.1 42 5.6 97 97 W 14 22 30.17 1022 8 12.87472 0 0
3:56 pm 15:56 Cloudy 43 6.1 42 5.6 97 97 WSW 13 20 30.18 1022 7 11.26538 0 0
4:56 pm 16:56 Cloudy 43 6.1 41 5 93 93 WSW 10 17 30.19 1022 9 14.48406 0 0
5:56 pm 17:56 Mostly Cloudy 41 5 40 4.4 96 96 WSW 10 17 30.2 1023 8 12.87472 0 0
6:48 pm 18:48 Mostly Clear 39 4 39 4 100 100 WSW 7 11 30.22 1023 9 14.48406 0 0
6:56 pm 18:56 Mostly Clear 39 3.9 39 3.9 100 100 WSW 12 19 30.21 1023 9 14.48406 0 0
7:48 pm 19:48 Mostly Cloudy 39 4 39 4 100 100 WSW 8 13 30.23 1024 7 11.26538 0 0
7:56 pm 19:56 Partly Cloudy with Mist and Fog 38 3.3 38 3.3 100 100 WSW 7 11 30.22 1023 6 9.65604 0 0
8:06 pm 20:06 Mostly Cloudy with Mist and Fog 37 3 37 3 100 100 W 7 11 30.23 1024 6 9.65604 0 0
8:56 pm 20:56 Cloudy with Mist and Fog 40 4.4 40 4.4 100 100 W 7 11 30.22 1024 6 9.65604 0 0
9:56 pm 21:56 Cloudy 39 3.9 39 3.9 100 100 W 3 6 30.23 1024 7 11.26538 0 0
10:56 pm 22:56 Cloudy with Mist and Fog 38 3.3 37 2.8 97 97 SW 5 7 30.22 1023 5 8.0467 0 0
11:56 pm 23:56 Mostly Cloudy with Mist and Fog 37 2.8 37 2.8 100 100 W 6 9 30.23 1024 5 8.0467 0 0

Powered by AerisWeather